Weather History for Dutch Harbor, AK

Change the Weather History Date:

Monday, November 19, 2012

  Actual Average Record
Temperature  
Mean Temperature 33 °F -  
Max Temperature 36 °F 43 °F 53 °F (1990)
Min Temperature 30 °F 23 °F -65 °F (1985)
Degree Days  
Heating Degree Days 32    
Moisture  
Dew Point 22 °F    
Average Humidity 64    
Maximum Humidity 72    
Minimum Humidity 57    
Precipitation  
Precipitation 0.00 in - - ()
Sea Level Pressure  
Sea Level Pressure 30.03 in    
Wind  
Wind Speed 27 mph (NNW)    
Max Wind Speed 37 mph    
Max Gust Speed 46 mph    
Visibility 10 miles    
Events Rain    
Averages and records for this station are not official NWS values.
T = Trace of Precipitation, MM = Missing Value Source: NWS Daily Summary

Daily Weather History Graph

Daily Weather History Graph

Search for Another Location

Airport:

Trip Planner

Search our weather history database for the weather conditions in past years. The results will help you decide how hot, cold, wet, or windy it might be!

Date:

Astronomy

Nov. 19, 2012 Rise Set
Actual Time 9:42 AM AKST 6:00 PM AKST
Civil Twilight 9:01 AM AKST 6:40 PM AKST
Nautical Twilight 8:18 AM AKST 7:24 PM AKST
Astronomical Twilight 7:36 AM AKST 8:06 PM AKST
Moon 2:28 PM AKST (11/19) No Moon Set
Length of Visible Light 9h 38m
Length of Day
8h 18m
Waxing Crescent, 42% of the Moon is Illuminated
Nov 19
Waxing Crescent
Nov 20
First Quarter
Nov 28
Full
Dec 6
Last Quarter
Dec 12
New

Hourly Weather History & Observations

Time (AKST) Temp. Windchill Dew Point Humidity Pressure Visibility Wind Dir Wind Speed Gust Speed Precip Events Conditions
12:56 AM 35.1 °F 21.8 °F 23.0 °F 61% 30.05 in 10.0 mi NNW 29.9 mph 46.0 mph N/A   Overcast
1:56 AM 35.1 °F 20.6 °F 24.1 °F 64% 30.04 in 10.0 mi NNW 36.8 mph 43.7 mph N/A   Overcast
2:56 AM 34.0 °F 20.1 °F 21.9 °F 61% 30.06 in 10.0 mi NNW 31.1 mph 41.4 mph N/A   Overcast
3:56 AM 34.0 °F 20.3 °F 21.9 °F 61% 30.06 in 10.0 mi NNW 29.9 mph 39.1 mph N/A   Overcast
4:56 AM 34.0 °F 20.8 °F 21.0 °F 59% 30.07 in 10.0 mi NNW 27.6 mph 39.1 mph N/A   Overcast
5:56 AM 34.0 °F 20.1 °F 21.0 °F 59% 30.06 in 10.0 mi NNW 31.1 mph 35.7 mph N/A   Overcast
6:56 AM 35.1 °F 22.0 °F 23.0 °F 61% 30.07 in 10.0 mi NNW 28.8 mph 32.2 mph N/A   Overcast
7:56 AM 35.1 °F 22.5 °F 24.1 °F 64% 30.06 in 10.0 mi NW 26.5 mph 34.5 mph 0.00 in   Overcast
8:56 AM 36.0 °F 22.8 °F 21.9 °F 57% 30.05 in 10.0 mi North 31.1 mph 36.8 mph 0.00 in   Overcast
9:56 AM 36.0 °F 23.2 °F 26.1 °F 67% 30.04 in 10.0 mi NNW 28.8 mph 34.5 mph 0.00 in Rain Light Rain
10:56 AM 36.0 °F 23.5 °F 24.1 °F 62% 30.04 in 10.0 mi NNW 27.6 mph 31.1 mph 0.00 in   Overcast
11:56 AM 36.0 °F 23.2 °F 21.9 °F 57% 30.02 in 10.0 mi NNW 28.8 mph 34.5 mph 0.00 in   Overcast
12:56 PM 35.1 °F 22.0 °F 21.0 °F 57% 30.02 in 10.0 mi North 28.8 mph 35.7 mph N/A   Overcast
1:56 PM 34.0 °F 20.5 °F 21.9 °F 61% 30.02 in 10.0 mi North 28.8 mph 33.4 mph 0.00 in   Overcast
2:56 PM 33.1 °F 20.9 °F 19.9 °F 59% 30.02 in 10.0 mi NNW 21.9 mph 33.4 mph N/A   Overcast
4:56 PM 32.0 °F 20.8 °F 19.0 °F 59% 29.99 in 10.0 mi NNE 17.3 mph 33.4 mph N/A   Overcast
5:56 PM 30.9 °F 21.7 °F 21.0 °F 67% 30.00 in 10.0 mi North 11.5 mph 29.9 mph N/A   Overcast
6:56 PM 30.9 °F 18.4 °F 21.9 °F 69% 30.01 in 10.0 mi NNW 20.7 mph 33.4 mph N/A   Overcast
7:24 PM 30.2 °F 20.8 °F 21.2 °F 69% 29.99 in 10.0 mi NE 11.5 mph 29.9 mph N/A   Overcast
7:56 PM 30.9 °F 19.1 °F 21.0 °F 67% 30.01 in 10.0 mi NNW 18.4 mph 32.2 mph N/A   Overcast
8:39 PM 30.2 °F 18.9 °F 21.2 °F 69% 29.98 in 10.0 mi NNW 16.1 mph 34.5 mph N/A   Overcast
8:56 PM 30.0 °F 19.5 °F 21.9 °F 72% 29.99 in 10.0 mi NNW 13.8 mph 32.2 mph N/A   Overcast
9:56 PM 30.0 °F 19.1 °F 21.9 °F 72% 30.00 in 10.0 mi North 15.0 mph 21.9 mph N/A   Overcast
10:56 PM 30.9 °F 20.2 °F 21.9 °F 69% 29.99 in 10.0 mi North 15.0 mph 26.5 mph N/A   Overcast
11:56 PM 30.9 °F 18.4 °F 23.0 °F 72% 29.99 in 10.0 mi NW 20.7 mph 24.2 mph N/A   Overcast